Regional Weather Roundup
Issued by NWS

Home | Current Version | Previous Version | Text Only | Print | Product List | Glossary On
Versions: 1 2 3 4 5 6 7 8 9 10 11 12 13 14 15 16 17 18 19 20 21 22 23 24 25 26 27 28 29 30 31 32 33 34 35 36 37 38 39 40 41 42 43 44 45 46 47 48 49 50
000
ASUS44 KJAN 260603
RWRMS

MISSISSIPPI HOURLY WEATHER ROUNDUP
NATIONAL WEATHER SERVICE JACKSON MS
100 AM CDT SUN OCT 26 2014

NOTE: "FAIR: INDICATES FEW OR NO CLOUDS BELOW 12,000 FEET WITH NO
SIGNIFICANT WEATHER AND/OR OBSTRUCTIONS TO VISIBILITY.

MSZ001>002-007>008-010>013-018>021-025>028-034>036-260700-
NORTHWEST MISSISSIPPI

CITY           SKY/WX    TMP DP  RH WIND       PRES   REMARKS
CLARKSDALE     FAIR      63  63 100 SE3       30.04S
CLEVELAND      FAIR      64  63  98 CALM      30.03F
GREENWOOD      CLEAR     60  58  92 CALM      30.05S FOG
6HR MIN TEMP:  59; 6HR MAX TEMP:  69;

GREENVILLE     CLEAR     62  60  93 S3        30.03F
6HR MIN TEMP:  61; 6HR MAX TEMP:  72;

GRENADA          N/A    N/A N/A N/A MISG        N/A
OLIVE BRANCH   CLEAR     63  63 100 SW6       30.03S
OXFORD         FAIR      57  57 100 CALM      30.05F FOG
TUNICA         CLEAR     63  61  94 S3        30.03S
$$

MSZ003>006-009-014>017-022>024-029>033-037>039-260700-
NORTHEAST MISSISSIPPI

CITY           SKY/WX    TMP DP  RH WIND       PRES   REMARKS
COLUMBUS AFB   CLEAR     58  58 100 CALM      30.04F FOG
6HR MIN TEMP:  57; 6HR MAX TEMP:  66;

CORINTH        FOG       57  55  94 CALM      30.02F VSB 1/4
GOLDN TRIANGLE CLEAR    N/A N/A N/A SW3       30.03F
STARKVILLE     FOG       55  55 100 CALM      30.05S VSB 1
TUPELO         CLEAR     61  59  93 CALM      30.03F FOG
6HR MIN TEMP:  61; 6HR MAX TEMP:  71;

$$

MSZ040-058-260700-
CENTRAL MISSISSIPPI

CITY           SKY/WX    TMP DP  RH WIND       PRES   REMARKS
JACKSON INTL   CLEAR     58  56  93 CALM      30.07F
6HR MIN TEMP:  58; 6HR MAX TEMP:  69;

JACKSON HAWKNS CLEAR     61  58  90 CALM      30.07F
6HR MIN TEMP:  60; 6HR MAX TEMP:  70;

MERIDIAN KEY   CLEAR     56  55  97 CALM      30.06F
6HR MIN TEMP:  56; 6HR MAX TEMP:  67;

MERIDIAN NAS   CLEAR     59  57  93 W3        30.06F
6HR MIN TEMP:  59; 6HR MAX TEMP:  70;

RAYMOND        FAIR      55  50  82 MISG      30.07F HAZE
VICKSBURG      CLEAR     56  54  93 CALM      30.06F
6HR MIN TEMP:  56; 6HR MAX TEMP:  67;

$$

MSZ059>079-260700-
SOUTH MISSISSIPPI

CITY           SKY/WX    TMP DP  RH WIND       PRES   REMARKS
BROOKHAVEN     FAIR      55  55 100 CALM      30.09F
COLUMBIA         N/A     55  55 100 MISG        N/A
HATTIESBURG    CLEAR     58  56  93 CALM      30.07F
6HR MIN TEMP:  58; 6HR MAX TEMP:  68;

MCCOMB         CLEAR     58  54  86 CALM      30.08F
6HR MIN TEMP:  57; 6HR MAX TEMP:  71;

NATCHEZ        CLEAR     57  54  88 S3        30.08S
6HR MIN TEMP:  57; 6HR MAX TEMP:  68;

PINE BELT      CLEAR     57  55  94 CALM      30.08S
6HR MIN TEMP:  57; 6HR MAX TEMP:  66;

$$

MSZ080>082-260700-
COASTAL MISSISSIPPI

CITY           SKY/WX    TMP DP  RH WIND       PRES   REMARKS
BILOXI         CLEAR     63  60  90 CALM      30.05F
6HR MIN TEMP:  63; 6HR MAX TEMP:  68;

PASCAGOULA     CLEAR     54  53  97 CALM      30.06F FOG
6HR MIN TEMP:  53; 6HR MAX TEMP:  62;

GULFPORT       CLEAR     59  57  93 CALM      30.05F
6HR MIN TEMP:  59; 6HR MAX TEMP:  67;

$$



USA.gov is the U.S. government's official web portal to all federal, state and local government web resources and services.